[[{"header":{"parameterUnit":"m.s-1","parameterCategory":1,"la1":30.2991,"la2":30.254,"lo1":-89.0895,"lo2":-89.0444,"dy":0.0017,"dx":0.0017,"nx":28,"ny":28,"refTime":"2024-02-04T09:00:00:Z","depth":0,"parameterNumber":2,"parameterNumberName":"U-component_of_WINDS"},"data":[0,0,0,0,0,0,0,0,0,0,0,0,0,0,0,0,0,0,0,0,0,0,0,0,0,0,0,0,0,0,0,0,0,0,0,0,0,0,0,0,0,0,0,0,0,0,0,0,0,0,0,0,0,0,0,0,0,0,0.6424,0.6424,0,0.6421,0.6421,0.6421,0.6422,0.6422,0.6422,0.6422,0.6418,0.6418,0.6417,0,0,0,0,0,0,0,0,0,0,0,0,0,0.643,0.643,0.6424,0.6424,0.6424,0.6421,0.6421,0.6421,0.6422,0.6422,0.6422,0.6422,0.6418,0.6418,0.6417,0,0,0,0,0,0,0,0,0,0,0,0,0,0.6427,0.643,0.6424,0.6424,0.6424,0.6421,0.6421,0.6421,0.6422,0.6422,0.6422,0.6422,0.6418,0.6418,0.6417,0.6414,0,0,0.6417,0.6416,0,0,0,0,0,0,0,0,0.6427,0.6427,0.6424,0.6424,0.6424,0.6422,0.6422,0.6419,0.6422,0.6423,0.6422,0.6422,0.6419,0.6419,0.6418,0.6413,0.6413,0.6417,0.6416,0.6416,0.6416,0,0,0,0,0,0,0,0.6428,0.6427,0.6423,0.6424,0.6424,0.6424,0.6424,0.6421,0.642,0.6423,0.6423,0.6423,0.6419,0.6418,0.6418,0.6413,0.6417,0.6416,0.6416,0.6416,0.6407,0.6407,0,0,0,0,0,0,0.6428,0.6427,0.6423,0.6423,0.6426,0.6424,0.6424,0.6423,0.642,0.642,0.6422,0.6423,0.6419,0.6418,0.6418,0.6414,0.6416,0.6416,0.6416,0.6407,0.6407,0.6407,0,0,0,0,0,0,0.6428,0.6428,0.6423,0.6425,0.6425,0.6424,0.6423,0.6423,0.6422,0.642,0.642,0.6422,0.6419,0.6418,0.6415,0.6414,0.6416,0.6416,0.6407,0.6407,0.6407,0.6405,0,0,0,0,0,0,0.6428,0.6428,0.6426,0.6425,0.6424,0.6421,0.6422,0.6422,0.6421,0.6421,0.6419,0.6419,0.6419,0.6415,0.6415,0.6413,0.6415,0.6407,0.6407,0.6407,0.6406,0.6405,0.6405,0,0,0,0,0,0.6428,0.6425,0.6426,0.6425,0.6423,0.642,0.642,0.642,0.6421,0.642,0.6419,0.6419,0.6414,0.6415,0.6414,0.6413,0.6407,0.6407,0.6407,0.6406,0.6405,0.6405,0,0,0,0,0,0,0.6425,0.6425,0.6426,0.6422,0.6422,0.6421,0.6419,0.6419,0.6418,0.6418,0.6418,0.6417,0.6414,0.6413,0.6414,0.641,0.6411,0.6411,0.641,0.641,0.641,0.641,0.6415,0,0,0,0,0,0.6424,0.6423,0.6423,0.6419,0.6419,0.6419,0.6418,0.6418,0.6417,0.6417,0.6416,0.6414,0.6413,0.6411,0.6409,0.6406,0.6406,0.6405,0.6404,0.6404,0.6404,0.6403,0.6402,0.6406,0.6406,0.6406,0,0,0.6421,0.6421,0.642,0.6419,0.6418,0.6417,0.6419,0.6416,0.6415,0.6416,0.6413,0.6413,0.6412,0.6409,0.6407,0.6408,0.6403,0.6404,0.6404,0.6403,0.6402,0.6402,0.6402,0.6406,0.6406,0.6406,0,0,0.6416,0.6416,0.6414,0.6413,0.6413,0.6413,0.6413,0.6412,0.6412,0.641,0.6411,0.641,0.6406,0.6406,0.6405,0.6401,0.6402,0.6401,0.6399,0.6398,0.6398,0.6397,0.6396,0.6396,0.64,0.64,0.64,0,0.6413,0.6411,0.6412,0.641,0.641,0.6412,0.641,0.6409,0.6408,0.6408,0.6409,0.6406,0.6405,0.6402,0.6402,0.6401,0.64,0.64,0.6398,0.6397,0.6397,0.6396,0.6396,0.64,0.64,0.64,0.64,0,0.6407,0.6406,0.6404,0.6404,0.6403,0.6401,0.6402,0.6402,0.6403,0.6403,0.6401,0.6401,0.6399,0.6399,0.6399,0.6396,0.6397,0.6398,0.6399,0.6397,0.6396,0.6395,0.64,0.64,0.64,0.64,0,0,0.6397,0.64,0.6399,0.6399,0.64,0.6399,0.6398,0.6397,0.6397,0.6396,0.6395,0.6393,0.6395,0.6394,0.6394,0.6394,0.6392,0.6395,0.6395,0.6394,0.6389,0.6388,0.6388,0.6392,0.6392,0.6392,0.639,0,0.6392,0.639,0.6392,0.639,0.6389,0.6392,0.6391,0.6391,0.6392,0.6391,0.6392,0.6391,0.6393,0.6392,0.6392,0.6392,0.6391,0.6392,0.6391,0.6391,0.6391,0.6387,0.6386,0.6383,0.6389,0.6389,0.6389,0,0.6385,0.6386,0.6383,0.6385,0.6385,0.6384,0.6384,0.6384,0.6385,0.6385,0.6386,0.6387,0.6386,0.6388,0.6387,0.6388,0.6388,0.6388,0.6388,0.6388,0.6389,0.6386,0.6383,0.6382,0.6389,0.6389,0.6389,0,0.6379,0.6379,0.6377,0.6378,0.638,0.6379,0.638,0.6381,0.6381,0.6382,0.6382,0.6382,0.6382,0.6382,0.6384,0.6385,0.6383,0.6385,0.6384,0.6384,0.6382,0.6382,0.6378,0.6383,0.6383,0.6383,0.6383,0,0.6372,0.637,0.6375,0.6374,0.6373,0.6375,0.6374,0.6375,0.6377,0.6376,0.6379,0.6378,0.6381,0.6381,0.6382,0.6381,0.6381,0.6382,0.6382,0.6381,0.6381,0.6381,0.6381,0.6383,0.6383,0.6383,0.6383,0,0.6364,0.6367,0.6366,0.6369,0.6369,0.6368,0.6371,0.637,0.6372,0.6372,0.6372,0.6375,0.6375,0.6377,0.6377,0.6378,0.6377,0.6378,0.6377,0.6377,0.6376,0.6376,0.637,0.637,0.6376,0.6376,0.6376,0,0.6359,0.6358,0.6361,0.6362,0.6363,0.6363,0.6364,0.6367,0.6367,0.637,0.6369,0.637,0.637,0.6371,0.6373,0.6374,0.6374,0.6373,0.6374,0.6374,0.6374,0.6374,0.6374,0.6372,0.6372,0.6372,0.6372,0,0.635,0.6352,0.6353,0.6355,0.6355,0.6357,0.6358,0.6358,0.6362,0.6363,0.6364,0.6364,0.6366,0.6367,0.6368,0.6369,0.6371,0.6371,0.6371,0.637,0.6369,0.637,0.6376,0.6371,0.6371,0.6371,0.6371,0.6371,0.6343,0.6343,0.6346,0.6347,0.6349,0.6351,0.6351,0.6353,0.6354,0.6356,0.6358,0.6359,0.6361,0.6364,0.6365,0.6366,0.6367,0.6366,0.6366,0.6366,0.6365,0.637,0.6366,0.6366,0.6366,0.6366,0.6366,0,0.6335,0.6337,0.6338,0.6341,0.6342,0.6345,0.6347,0.6348,0.6349,0.6351,0.6353,0.6354,0.6356,0.6358,0.636,0.636,0.6361,0.6361,0.636,0.6361,0.6364,0.6364,0.636,0.636,0.636,0.636,0.636,0.636,0.633,0.633,0.6333,0.6334,0.6336,0.6338,0.6339,0.6341,0.6343,0.6345,0.6346,0.6349,0.6351,0.6354,0.6355,0.6356,0.6356,0.6355,0.6357,0.636,0.636,0.6361,0.6361,0.6356,0.6356,0.6353,0.6353,0.6353]},{"header":{"parameterUnit":"m.s-1","parameterCategory":1,"la1":30.2991,"la2":30.254,"lo1":-89.0895,"lo2":-89.0444,"dy":0.0017,"dx":0.0017,"nx":28,"ny":28,"refTime":"2024-02-04T09:00:00:Z","depth":0,"parameterNumber":3,"parameterNumberName":"V-component_of_WINDS"},"data":[0,0,0,0,0,0,0,0,0,0,0,0,0,0,0,0,0,0,0,0,0,0,0,0,0,0,0,0,0,0,0,0,0,0,0,0,0,0,0,0,0,0,0,0,0,0,0,0,0,0,0,0,0,0,0,0,0,0,-7.0655,-7.0657,0,-7.08,-7.0801,-7.0803,-7.0739,-7.0736,-7.0732,-7.0729,-7.0874,-7.0881,-7.0888,0,0,0,0,0,0,0,0,0,0,0,0,0,-7.0322,-7.0328,-7.0655,-7.0657,-7.0658,-7.0799,-7.0801,-7.0803,-7.074,-7.0736,-7.0731,-7.0727,-7.0871,-7.088,-7.0888,0,0,0,0,0,0,0,0,0,0,0,0,0,-7.0466,-7.033,-7.0654,-7.0644,-7.0644,-7.0799,-7.0801,-7.0804,-7.0741,-7.0736,-7.073,-7.0725,-7.0869,-7.0879,-7.089,-7.1062,0,0,-7.0922,-7.0927,0,0,0,0,0,0,0,0,-7.0458,-7.0479,-7.0644,-7.0645,-7.0646,-7.0746,-7.0737,-7.089,-7.0742,-7.0704,-7.0729,-7.0723,-7.0835,-7.0848,-7.0887,-7.1069,-7.1075,-7.0923,-7.093,-7.0934,-7.0937,0,0,0,0,0,0,0,-7.0448,-7.0472,-7.0712,-7.0646,-7.0648,-7.0631,-7.0646,-7.0766,-7.0798,-7.0707,-7.0703,-7.0721,-7.0835,-7.0877,-7.089,-7.1077,-7.0923,-7.0933,-7.0939,-7.0943,-7.1409,-7.1414,0,0,0,0,0,0,-7.0439,-7.0464,-7.0707,-7.0716,-7.0537,-7.0642,-7.0658,-7.0719,-7.0796,-7.0803,-7.0725,-7.0718,-7.0861,-7.0878,-7.0895,-7.1103,-7.0934,-7.0944,-7.0951,-7.1403,-7.141,-7.1416,0,0,0,0,0,0,-7.0432,-7.0461,-7.0701,-7.0589,-7.0619,-7.0653,-7.0722,-7.0725,-7.0767,-7.081,-7.0815,-7.0763,-7.0858,-7.088,-7.1022,-7.1107,-7.0949,-7.0959,-7.1396,-7.1405,-7.1413,-7.1521,0,0,0,0,0,0,-7.0423,-7.0459,-7.0525,-7.0591,-7.0625,-7.0827,-7.0727,-7.0732,-7.0786,-7.0777,-7.0846,-7.0853,-7.0855,-7.1006,-7.1032,-7.1119,-7.0967,-7.1388,-7.14,-7.141,-7.151,-7.1532,-7.1552,0,0,0,0,0,-7.0411,-7.0548,-7.0529,-7.0559,-7.0709,-7.0832,-7.0851,-7.0852,-7.0793,-7.086,-7.0888,-7.0851,-7.1094,-7.1021,-7.105,-7.1142,-7.1383,-7.1397,-7.141,-7.15,-7.1528,-7.1551,0,0,0,0,0,0,-7.049,-7.0557,-7.0536,-7.0699,-7.0761,-7.0821,-7.0905,-7.0881,-7.0959,-7.0947,-7.0944,-7.096,-7.1108,-7.1138,-7.1056,-7.1313,-7.1229,-7.1249,-7.1288,-7.1315,-7.1335,-7.1325,-7.0976,0,0,0,0,0,-7.0527,-7.0622,-7.0675,-7.0814,-7.0846,-7.0871,-7.0924,-7.092,-7.0983,-7.1008,-7.1046,-7.1108,-7.1198,-7.1258,-7.1343,-7.1513,-7.1528,-7.1591,-7.1612,-7.1629,-7.1646,-7.174,-7.1769,-7.146,-7.146,-7.146,0,0,-7.0603,-7.0651,-7.0712,-7.0831,-7.0878,-7.0977,-7.0893,-7.1,-7.1073,-7.1024,-7.1161,-7.1191,-7.126,-7.1417,-7.1488,-7.1448,-7.1735,-7.1646,-7.1659,-7.1667,-7.1757,-7.1786,-7.1812,-7.1469,-7.1468,-7.1466,0,0,-7.0793,-7.0839,-7.0961,-7.101,-7.1083,-7.1099,-7.1128,-7.1193,-7.1212,-7.135,-7.1316,-7.1402,-7.1557,-7.1608,-7.1654,-7.1865,-7.1835,-7.1893,-7.2003,-7.2094,-7.2119,-7.214,-7.2217,-7.2245,-7.191,-7.191,-7.191,0,-7.0879,-7.1027,-7.1026,-7.1138,-7.1192,-7.1153,-7.1277,-7.1324,-7.1421,-7.1459,-7.1411,-7.1607,-7.165,-7.182,-7.1872,-7.191,-7.1944,-7.1886,-7.2115,-7.2137,-7.2157,-7.2231,-7.2259,-7.1917,-7.1916,-7.1915,-7.1915,0,-7.113,-7.1233,-7.1323,-7.1419,-7.1483,-7.16,-7.1616,-7.1681,-7.1671,-7.1692,-7.1833,-7.1884,-7.198,-7.2019,-7.201,-7.2188,-7.2161,-7.2115,-7.2031,-7.2193,-7.2262,-7.229,-7.1927,-7.1924,-7.1922,-7.1921,0,0,-7.1374,-7.147,-7.1503,-7.1547,-7.1625,-7.1705,-7.182,-7.1915,-7.1972,-7.2039,-7.2136,-7.2269,-7.2228,-7.228,-7.2276,-7.2357,-7.2523,-7.2301,-7.2302,-7.2342,-7.2725,-7.2761,-7.2793,-7.2503,-7.2508,-7.2512,-7.272,0,-7.1572,-7.1775,-7.1778,-7.1965,-7.2061,-7.2026,-7.2127,-7.2185,-7.2208,-7.2292,-7.2316,-7.2411,-7.2348,-7.238,-7.2458,-7.2487,-7.26,-7.2471,-7.2593,-7.2597,-7.2579,-7.2829,-7.2867,-7.306,-7.2746,-7.2751,-7.2754,0,-7.1829,-7.1908,-7.2105,-7.2171,-7.2212,-7.2302,-7.2391,-7.2472,-7.2537,-7.2548,-7.2608,-7.2592,-7.2709,-7.2621,-7.2782,-7.2695,-7.2744,-7.2766,-7.2774,-7.2786,-7.2687,-7.285,-7.3121,-7.3151,-7.2796,-7.2793,-7.279,0,-7.199,-7.2145,-7.2284,-7.2322,-7.2402,-7.2467,-7.2503,-7.2564,-7.2622,-7.2698,-7.2736,-7.2824,-7.2874,-7.2942,-7.2951,-7.2885,-7.3114,-7.3026,-7.3127,-7.3127,-7.3178,-7.3175,-7.3463,-7.3207,-7.3207,-7.3206,-7.3206,0,-7.2212,-7.2334,-7.2358,-7.2443,-7.2579,-7.2581,-7.2716,-7.2746,-7.2801,-7.2891,-7.2865,-7.295,-7.2956,-7.3043,-7.305,-7.3184,-7.3206,-7.3218,-7.3219,-7.3222,-7.322,-7.3255,-7.3243,-7.3214,-7.3212,-7.3211,-7.3209,0,-7.2415,-7.2436,-7.2585,-7.2649,-7.2668,-7.2766,-7.282,-7.2902,-7.2922,-7.3037,-7.3064,-7.3095,-7.3197,-7.3212,-7.333,-7.3335,-7.3497,-7.3482,-7.3475,-7.3474,-7.3575,-7.3566,-7.3897,-7.3941,-7.3655,-7.3658,-7.366,0,-7.2556,-7.265,-7.2725,-7.2785,-7.2825,-7.292,-7.298,-7.2985,-7.3048,-7.3131,-7.3203,-7.3302,-7.3382,-7.3546,-7.3579,-7.367,-7.3659,-7.3768,-7.3672,-7.3673,-7.3663,-7.3658,-7.3668,-7.3787,-7.3791,-7.3793,-7.3795,0,-7.2805,-7.2811,-7.2898,-7.299,-7.3062,-7.3134,-7.3202,-7.3252,-7.3266,-7.3338,-7.3442,-7.3505,-7.3627,-7.3726,-7.3817,-7.3852,-7.3827,-7.3825,-7.3854,-7.3859,-7.3852,-7.3859,-7.3528,-7.3818,-7.3816,-7.3814,-7.3813,-7.3812,-7.2982,-7.3065,-7.3132,-7.323,-7.3282,-7.3347,-7.3427,-7.3458,-7.3546,-7.3647,-7.3644,-7.376,-7.3824,-7.3943,-7.3986,-7.4076,-7.404,-7.4081,-7.4091,-7.4102,-7.4113,-7.3836,-7.4092,-7.4091,-7.409,-7.409,-7.4089,0,-7.3231,-7.3273,-7.3363,-7.3461,-7.3538,-7.3508,-7.3582,-7.3649,-7.3752,-7.3814,-7.3894,-7.4016,-7.4112,-7.4153,-7.4248,-7.4312,-7.4303,-7.4337,-7.4333,-7.4342,-7.4138,-7.4105,-7.4343,-7.4343,-7.4343,-7.4343,-7.4343,-7.4342,-7.337,-7.3509,-7.3523,-7.3688,-7.3727,-7.3842,-7.3887,-7.3947,-7.3997,-7.4134,-7.4215,-7.4241,-7.4296,-7.4394,-7.4481,-7.4491,-7.4528,-7.4568,-7.4572,-7.4381,-7.4356,-7.4332,-7.4301,-7.4575,-7.4575,-7.4768,-7.477,-7.4771]}]]